When you browse on this site, cookies collect data to enhance your experience and personalize the content and advertising you see.
Visit our Privacy Policy to learn more. By continuing to use the site, you agree to this use of cookies and data.
  • In Sweden
  • List of Countries
  • For 7 days
  • Water Temperature
  • Weather Map
  • Weather Widgets
  • user-avatar
    Login

    Hourly Weather Santiago de Querétaro

    Today, 24 February, Monday

    Time Temperature Precipitation Wind Pressure Humidity
    00:00 +19°C° 0 mm 1 mps 607 mmHg 56%
    01:00 +19°C° 0 mm 1 mps 607 mmHg 58%
    02:00 +18°C° 0 mm 1 mps 606 mmHg 59%
    03:00 +16°C° 0 mm 1 mps 606 mmHg 61%
    04:00 +16°C° 0 mm 1 mps 606 mmHg 64%
    05:00 +15°C° 0 mm 1 mps 605 mmHg 66%
    06:00 +16°C° 0 mm 1 mps 606 mmHg 62%
    07:00 +18°C° 0 mm 2 mps 607 mmHg 57%
    08:00 +19°C° 0 mm 2 mps 608 mmHg 52%
    09:00 +21°C° 0 mm 2 mps 608 mmHg 45%
    10:00 +24°C° 0 mm 3 mps 608 mmHg 39%
    11:00 +26°C° 0 mm 4 mps 608 mmHg 32%
    12:00 +28°C° 0 mm 4 mps 608 mmHg 28%
    13:00 +29°C° 0 mm 5 mps 608 mmHg 24%
    14:00 +30°C° 0 mm 5 mps 607 mmHg 20%
    15:00 +30°C° 0 mm 5 mps 607 mmHg 21%
    16:00 +29°C° 0 mm 5 mps 607 mmHg 23%
    17:00 +28°C° 0 mm 5 mps 606 mmHg 24%
    18:00 +26°C° 0 mm 5 mps 606 mmHg 30%
    19:00 +23°C° 0 mm 4 mps 607 mmHg 36%
    20:00 +21°C° 0 mm 3 mps 607 mmHg 41%
    21:00 +20°C° 0 mm 2 mps 606 mmHg 44%
    22:00 +19°C° 0 mm 2 mps 606 mmHg 47%
    23:00 +19°C° 0 mm 1 mps 606 mmHg 50%

    Tomorrow, 25 February, Tuesday

    Time Temperature Precipitation Wind Pressure Humidity
    00:00 +19°C° 0 mm 1 mps 606 mmHg 53%
    01:00 +18°C° 0 mm 1 mps 605 mmHg 56%
    02:00 +16°C° 0 mm 1 mps 604 mmHg 59%
    03:00 +15°C° 0 mm 1 mps 604 mmHg 62%
    04:00 +15°C° 0 mm 1 mps 604 mmHg 64%
    05:00 +14°C° 0 mm 1 mps 604 mmHg 67%
    06:00 +15°C° 0 mm 1 mps 605 mmHg 61%
    07:00 +18°C° 0 mm 1 mps 606 mmHg 56%
    08:00 +19°C° 0 mm 1 mps 607 mmHg 50%
    09:00 +20°C° 0 mm 2 mps 607 mmHg 42%
    10:00 +22°C° 0 mm 3 mps 608 mmHg 35%
    11:00 +25°C° 0 mm 4 mps 608 mmHg 27%
    12:00 +26°C° 0 mm 4 mps 608 mmHg 23%
    13:00 +27°C° 0 mm 5 mps 607 mmHg 19%
    14:00 +28°C° 0 mm 5 mps 607 mmHg 16%
    15:00 +28°C° 0 mm 5 mps 606 mmHg 17%
    16:00 +27°C° 0 mm 4 mps 606 mmHg 18%
    17:00 +26°C° 0 mm 4 mps 606 mmHg 19%
    18:00 +24°C° 0 mm 3 mps 606 mmHg 23%
    19:00 +21°C° 0 mm 2 mps 606 mmHg 26%
    20:00 +19°C° 0 mm 2 mps 606 mmHg 29%
    21:00 +19°C° 0 mm 1 mps 606 mmHg 39%
    22:00 +18°C° 0 mm 1 mps 606 mmHg 48%
    23:00 +16°C° 0 mm 1 mps 605 mmHg 58%

    Day after tomorrow, 26 February, Wednesday

    Time Temperature Precipitation Wind Pressure Humidity
    00:00 +15°C° 0 mm 1 mps 605 mmHg 63%
    01:00 +15°C° 0 mm 1 mps 605 mmHg 69%
    02:00 +14°C° 0 mm 1 mps 605 mmHg 75%
    03:00 +14°C° 0 mm 1 mps 605 mmHg 76%
    04:00 +14°C° 0 mm 1 mps 605 mmHg 76%
    05:00 +14°C° 0 mm 1 mps 605 mmHg 77%
    06:00 +15°C° 0.1 mm 2 mps 607 mmHg 71%
    07:00 +15°C° 0.1 mm 4 mps 608 mmHg 66%
    08:00 +17°C° 0.1 mm 5 mps 609 mmHg 60%
    09:00 +19°C° 0 mm 6 mps 609 mmHg 56%
    10:00 +20°C° 0 mm 7 mps 610 mmHg 51%
    11:00 +21°C° 0 mm 8 mps 610 mmHg 47%
    12:00 +20°C° 0 mm 8 mps 609 mmHg 49%
    13:00 +18°C° 0 mm 8 mps 609 mmHg 52%
    14:00 +17°C° 0 mm 8 mps 608 mmHg 54%
    15:00 +16°C° 0 mm 7 mps 607 mmHg 57%
    16:00 +15°C° 0 mm 7 mps 607 mmHg 59%
    17:00 +12°C° 0 mm 7 mps 607 mmHg 61%
    18:00 +11°C° 0 mm 6 mps 607 mmHg 65%
    19:00 +10°C° 0 mm 6 mps 607 mmHg 69%
    20:00 +9°C° 0 mm 5 mps 608 mmHg 72%
    21:00 +8°C° 0 mm 4 mps 608 mmHg 74%
    22:00 +8°C° 0 mm 4 mps 608 mmHg 76%
    23:00 +7°C° 0 mm 4 mps 608 mmHg 78%

    27 February, Thursday

    Time Temperature Precipitation Wind Pressure Humidity
    00:00 +7°C° 0 mm 4 mps 607 mmHg 79%
    01:00 +8°C° 0 mm 3 mps 607 mmHg 79%
    02:00 +7°C° 0 mm 3 mps 607 mmHg 80%
    03:00 +7°C° 0 mm 3 mps 607 mmHg 81%
    04:00 +7°C° 0 mm 2 mps 607 mmHg 81%
    05:00 +6°C° 0 mm 2 mps 607 mmHg 82%
    06:00 +8°C° 0 mm 2 mps 607 mmHg 77%
    07:00 +9°C° 0 mm 2 mps 608 mmHg 72%
    08:00 +10°C° 0 mm 2 mps 608 mmHg 68%
    09:00 +14°C° 0 mm 2 mps 609 mmHg 59%
    10:00 +16°C° 0 mm 2 mps 610 mmHg 50%
    11:00 +20°C° 0 mm 1 mps 610 mmHg 41%
    12:00 +21°C° 0 mm 2 mps 610 mmHg 37%
    13:00 +23°C° 0 mm 2 mps 610 mmHg 32%
    14:00 +25°C° 0 mm 2 mps 609 mmHg 28%
    15:00 +24°C° 0 mm 2 mps 609 mmHg 28%
    16:00 +24°C° 0 mm 2 mps 609 mmHg 28%
    17:00 +24°C° 0 mm 2 mps 610 mmHg 27%
    18:00 +21°C° 0 mm 2 mps 609 mmHg 35%
    19:00 +18°C° 0 mm 3 mps 609 mmHg 43%
    20:00 +16°C° 0 mm 3 mps 609 mmHg 50%
    21:00 +15°C° 0 mm 2 mps 609 mmHg 54%
    22:00 +15°C° 0 mm 2 mps 609 mmHg 57%
    23:00 +14°C° 0 mm 2 mps 609 mmHg 60%

    28 February, Friday

    Time Temperature Precipitation Wind Pressure Humidity
    00:00 +13°C° 0 mm 2 mps 609 mmHg 63%
    01:00 +13°C° 0 mm 1 mps 608 mmHg 65%
    02:00 +12°C° 0 mm 1 mps 608 mmHg 68%
    03:00 +12°C° 0 mm 1 mps 607 mmHg 69%
    04:00 +11°C° 0 mm 1 mps 607 mmHg 71%
    05:00 +11°C° 0 mm 1 mps 607 mmHg 73%
    06:00 +13°C° 0 mm 1 mps 608 mmHg 67%
    07:00 +14°C° 0 mm 1 mps 609 mmHg 61%
    08:00 +16°C° 0 mm 2 mps 610 mmHg 55%
    09:00 +18°C° 0 mm 2 mps 611 mmHg 48%
    10:00 +20°C° 0 mm 2 mps 612 mmHg 41%
    11:00 +24°C° 0 mm 2 mps 612 mmHg 34%
    12:00 +25°C° 0 mm 2 mps 612 mmHg 31%
    13:00 +26°C° 0 mm 2 mps 611 mmHg 28%
    14:00 +27°C° 0 mm 2 mps 611 mmHg 25%
    15:00 +26°C° 0 mm 3 mps 611 mmHg 26%
    16:00 +26°C° 0 mm 3 mps 610 mmHg 28%
    17:00 +25°C° 0 mm 4 mps 610 mmHg 30%
    18:00 +22°C° 0 mm 4 mps 610 mmHg 39%
    19:00 +19°C° 0 mm 3 mps 610 mmHg 47%
    20:00 +17°C° 0 mm 3 mps 610 mmHg 56%
    21:00 +16°C° 0 mm 3 mps 610 mmHg 61%
    22:00 +13°C° 0 mm 3 mps 610 mmHg 66%
    23:00 +12°C° 0 mm 3 mps 609 mmHg 71%

    29 February, Saturday

    Time Temperature Precipitation Wind Pressure Humidity
    00:00 +12°C° 0 mm 3 mps 609 mmHg 75%
    01:00 +12°C° 0 mm 2 mps 609 mmHg 79%
    02:00 +10°C° 0 mm 2 mps 608 mmHg 82%
    03:00 +10°C° 0 mm 2 mps 608 mmHg 84%
    04:00 +9°C° 0 mm 2 mps 608 mmHg 86%
    05:00 +9°C° 0 mm 2 mps 608 mmHg 88%
    06:00 +10°C° 0 mm 3 mps 609 mmHg 83%
    07:00 +11°C° 0 mm 3 mps 610 mmHg 77%
    08:00 +12°C° 0 mm 3 mps 611 mmHg 71%
    09:00 +14°C° 0 mm 4 mps 611 mmHg 62%
    10:00 +18°C° 0 mm 4 mps 612 mmHg 53%
    11:00 +20°C° 0 mm 5 mps 612 mmHg 44%
    12:00 +21°C° 0 mm 5 mps 612 mmHg 41%
    13:00 +22°C° 0 mm 5 mps 611 mmHg 38%
    14:00 +23°C° 0 mm 5 mps 611 mmHg 36%
    15:00 +22°C° 0 mm 5 mps 610 mmHg 39%
    16:00 +21°C° 0 mm 5 mps 610 mmHg 42%
    17:00 +20°C° 0 mm 5 mps 610 mmHg 45%
    18:00 +17°C° 0 mm 5 mps 610 mmHg 53%
    19:00 +15°C° 0 mm 5 mps 610 mmHg 62%
    20:00 +13°C° 0 mm 5 mps 609 mmHg 71%
    21:00 +12°C° 0 mm 4 mps 609 mmHg 74%
    22:00 +11°C° 0 mm 4 mps 609 mmHg 77%
    23:00 +11°C° 0 mm 4 mps 609 mmHg 80%
    Show more